www.pogodaiklimat.ru

Погода и климат >> Архив погоды >> Индия >> Мадхья-Прадеш >> Сатна


ПОГОДА в Сатне

  • Прогноз погоды в Сатне
  • Монитор погоды в Сатне

АРХИВ ПОГОДЫ в Сатне

Время (UTC), дата Ветер
(напр.,м/с)
 
Видим.   Явления Облачность Т
(С)
Тd
(С)
f
(%)
Тe
(С)
Тes
(С)
Комфортность P
(гПа)
Po
(гПа)
Тmin
(С)
Tmax
(С)
R
(мм)
R24
(мм)
S
(см)
12 14.04 СЗ 1 10 км ясно +40.4 +7.6 14 +38 +39 очень
жарко
1002.7 968.8 +41.8
15 14.04 штиль 0 4000 м ясно +33.4 +13.3 30 +34 +34 очень
жарко
1005.3 970.5
18 14.04 штиль 0 4000 м ясно +30.2 +12.7 34 +31 +31 жарко 1006.0 970.8
21 14.04 штиль 0 4000 м ясно +27.6 +14.3 44 +30 +30 жарко 1006.0 970.5
00 15.04 штиль 0 4000 м ясно +25.8 +12.8 44 +28 +28 жарко 1006.9 971.2
03 15.04 штиль 0 10 км ясно +30.6 +14.1 37 +32 +43 жарко 1007.8 972.6 +25.4
06 15.04 СВ 1 10 км 4/0
[Ac trans]
+38.6 +14.3 24 +39 +59 опасность
солнечного
удара
1006.5 972.2
09 15.04 СЗ 1 10 км 5/0
[Ci fib]
+41.2 +9.3 15 +39 +56 опасность
солнечного
удара
1003.1 969.2
12 15.04 СЗ 1 10 км 8/6 300 м
[St Ci fib]
+39.6 +7.2 14 +37 +38 очень
жарко
1001.9 967.9 +41.9
15 15.04 штиль 0 4000 м 1/0
[Ac trans]
+34.6 +10.2 23 +34 +34 очень
жарко
1004.9 970.2
18 15.04 СЗ 1 4000 м 3/0
[Ac trans]
+32.2 +10.9 27 +32 +32 жарко 1007.2 972.2
21 15.04 штиль 0 4000 м 3/0
[Ac trans]
+29.0 +14.1 40 +31 +31 жарко 1005.4 970.1
00 16.04 ЮВ 1 4000 м 9/5 750 м
[Cb calv Ac trans]
+29.4 +12.4 35 +30 +30 жарко 1006.2 970.9
03 16.04 С 1 10 км в посл. час дождь 4/3 750 м
[Sc Ac trans]
+26.8 +18.0 59 +31 +38 душно 1011.5 975.7 +26.3 1
06 16.04 З 1 10 км {дождь} 8/6 750 м
[Sc Ac trans]
+33.8 +14.8 32 +35 +43 очень
жарко
1010.0 975.1
09 16.04 С 4 4000 м 10/6 750 м
[Cb cap Ac trans]
+30.4 +14.7 38 +32 +34 жарко 1010.5 975.2
12 16.04 С 2 4000 м 10/6 750 м
[Cb cap Ac trans]
+27.0 +16.0 51 +30 +30 душно 1008.2 972.6 +34.0
15 16.04 СВ 1 4000 м 4/0
[Ac trans]
+25.6 +16.6 58 +29 +29 душно 1009.7 973.9
18 16.04 штиль 0 4000 м 8/4 750 м
[Sc Ac trans]
+25.2 +16.8 60 +29 +29 душно 1009.6 973.7
21 16.04 З 1 4000 м гроза, ливневой дождь 10/6 750 м
[Cb cap Ac trans]
+22.0 +16.0 69 +26 +26 душно 1013.9 977.5 0.1
00 17.04 СЗ 1 4000 м слаб. дождь {гроза} 10/6 750 м
[Cb cap Ac trans]
+19.2 +17.9 92 +22 +22 комфорт 1014.7 977.9 4
03 17.04 В 1 10 км {гроза, дождь} 10/8 750 м
[Cb cap Ac trans]
+20.0 +18.7 92 +24 +25 комфорт 1013.8 977.1 +18.6 6
06 17.04 СВ 1 4000 м в посл. час морось {гроза, дождь} 10/8 750 м
[Sc Ac trans]
+20.6 +18.7 89 +26 +28 душно 1014.1 977.5 1
09 17.04 СВ 1 4000 м 6/0
[Ac trans]
+24.0 +19.0 74 +29 +40 душно 1011.5 975.4 1
12 17.04 ЮВ 1 4000 м 6/0
[Ac trans]
+25.6 +19.1 67 +31 +32 очень
душно
1009.2 973.4 +26.0 1
15 17.04 СВ 1 4000 м 3/0
[Ac trans]
+23.4 +18.3 73 +29 +29 душно 1010.9 974.7 1
18 17.04 штиль 0 4000 м 6/0
[Ac trans]
+22.2 +19.1 83 +28 +28 душно 1011.3 975.0 1
21 17.04 штиль 0 4000 м ясно +21.0 +18.8 87 +25 +25 комфорт 1010.1 973.7 1
00 18.04 штиль 0 4000 м ясно +20.0 +18.4 91 +23 +23 комфорт 1010.3 973.8 1
03 18.04 СЗ 1 10 км ясно +23.6 +19.2 76 +28 +39 душно 1012.1 975.9 +19.7 1
06 18.04 СЗ 1 10 км 3/3 900 м
[Cu hum]
+30.0 +15.0 40 +32 +51 опасность
солнечного
удара
1011.2 975.8
09 18.04 СЗ 1 10 км 3/3 900 м
[Cu hum]
+33.0 +13.1 30 +34 +46 очень
жарко
1007.1 972.2
12 18.04 С 1 10 км 3/3 900 м
[Cu hum]
+32.6 +11.0 27 +32 +33 жарко 1006.5 971.6 +34.0
15 18.04 С 1 4000 м ясно +29.0 +14.1 40 +31 +31 жарко 1008.4 973.0
18 18.04 штиль 0 4000 м ясно +25.2 +16.1 57 +29 +29 душно 1008.9 973.0
21 18.04 штиль 0 4000 м ясно +23.6 +14.9 58 +26 +26 жарко 1008.0 972.0
00 19.04 штиль 0 4000 м ясно +21.4 +15.7 70 +25 +25 комфорт 1008.7 972.4
03 19.04 штиль 0 10 км ясно +25.6 +15.4 53 +29 +40 душно 1010.4 974.5 +21.1
06 19.04 ЮВ 1 10 км 3/3 900 м
[Cu hum]
+32.6 +14.8 34 +34 +51 опасность
солнечного
удара
1008.9 973.9
09 19.04 С 1 10 км 8/8 900 м
[Cu hum]
+34.6 +11.6 25 +34 +38 очень
жарко
1005.4 970.7
12 19.04 С 1 10 км 5/5 900 м
[Cu hum]
+33.4 +14.2 31 +35 +35 душно 1004.3 969.5 +34.9
15 19.04 СВ 1 4000 м ясно +28.8 +14.7 42 +31 +31 жарко 1007.0 971.6
18 19.04 штиль 0 4000 м ясно +26.2 +16.1 54 +30 +30 душно 1007.5 971.8
21 19.04 штиль 0 4000 м ясно +23.8 +15.9 61 +27 +27 жарко 1007.0 971.0
00 20.04 штиль 0 4000 м 1/0
[Ac trans]
+22.0 +16.4 71 +26 +26 душно 1007.2 971.0
03 20.04 В 1 10 км ясно +27.0 +15.2 48 +30 +40 душно 1008.0 972.4 +21.6
06 20.04 ЮЗ 1 10 км 1/1 900 м
[Cu hum]
+34.0 +14.2 30 +35 +57 опасность
солнечного
удара
1006.5 971.7
09 20.04 С 2 10 км 3/3 900 м
[Cu hum]
+36.8 +14.3 26 +38 +48 очень
душно
1003.3 968.9
12 20.04 штиль 0 10 км 1/1 900 м
[Cu hum]
+35.4 +15.8 31 +37 +39 очень
душно
1001.6 967.1 +37.0
15 20.04 штиль 0 4000 м 4/0
[Ac trans]
+31.0 +11.5 30 +31 +31 жарко 1003.5 968.5
18 20.04 штиль 0 4000 м ясно +28.0 +13.6 41 +30 +30 жарко 1005.0 969.6
21 20.04 штиль 0 4000 м ясно +25.0 +14.2 51 +27 +27 жарко 1004.5 968.8
00 21.04 штиль 0 4000 м ясно +23.2 +14.4 58 +27 +27 душно 1005.1 969.1
03 21.04 штиль 0 10 км ясно +27.6 +13.5 42 +29 +41 жарко 1006.7 971.2 +22.7
06 21.04 СЗ 1 10 км 1/1 900 м
[Cu hum]
+35.2 +15.5 31 +37 +61 опасность
солнечного
удара
1005.1 970.5
09 21.04 СВ 1 10 км 3/0
[Ac trans]
+37.2 +16.7 30 +40 +55 опасность
солнечного
удара
1002.1 967.8

 

Местоположение метеостанции Сатна (Мадхья-Прадеш, Индия): широта 24.57 долгота 80.83 высота над уровнем моря 316 м.

В архиве по умолчанию представлена погода в Сатне за последнюю неделю. Архивные данные за месяц целиком и за предыдущие месяцы, начиная с января 2011 года, Вы можете получить, выбрав интересующий диапазон дат из раскрывающегося списка и нажав кнопку "Ввод!".


*Определитесь, кто Вы:
робот инопланетянин человек

Внимание! Время в таблицах - всемирное. Для получения местного времени необходимо прибавить поправку, которая равна 5.5 ч.

Смотрите также архив погоды в соседних городах и на ближайших метеорологических станциях:

Погода в Реве (Мадхья-Прадеш, Индия) (48 км)
Погода в Кхаджурахо (Мадхья-Прадеш, Индия) (103 км)
Погода в Сидхи (Мадхья-Прадеш, Индия) (107 км)
Погода в Банде (Уттар-Прадеш, Индия) (110 км)
Погода в Умарии (Мадхья-Прадеш, Индия) (116 км)
Погода в Аллахабаде (Уттар-Прадеш, Индия) (133 км)
Погода в Ноугонге (Мадхья-Прадеш, Индия) (150 км)
Погода в Дамо (Мадхья-Прадеш, Индия) (162 км)
Погода в Хамирпуре (Уттар-Прадеш, Индия) (168 км)
Погода в Джабалпере (Мадхья-Прадеш, Индия) (177 км)

Пояснения к столбцам:

Ветер - указаны скорость ветра в м/с - средняя за 10 мин, порывы в срок и между сроками (в фигурных скобках) и направление, откуда дует ветер: С - северный, СВ - северо-восточный, В - восточный, ЮВ - юго-восточный, Ю - южный, ЮЗ - юго-западный, З - западный, СЗ - северо-западный.
Видимость - горизонтальная дальность видимости в метрах или километрах. При видимости от 1 до 10 км при отсутствии осадков обычно наблюдается дымка, при ухудшении видимости до 1 км и менее - туман. В сухую погоду видимость может ухудшаться дымом, пылью или мглою.
Явления - указаны атмосферные явления, наблюдавшиеся в срок или в последний час перед сроком; фигурными скобками обозначены явления, наблюдавшиеся между сроками (за 1-3 часа до срока); квадратными скобками обозначены град или гололедные отложения с указанием их диаметра в мм.
Облачность - указаны через наклонную черту общая и нижняя облачность в баллах и высота нижней границы облаков в метрах; квадратными скобками обозначены формы облаков: Ci - перистые, Cs - перисто-слоистые, Cc - перисто-кучевые, Ac - высококучевые, As - высокослоистые, Sc - слоисто-кучевые, Ns - слоисто-дождевые, Cu - кучевые, Cb - кучево-дождевые. Подробнее классификацию облаков см. в Атласе облаков (PDF).
T - Температура воздуха - температура, измеренная на высоте 2 м над землей.
Td - Температура точки росы - температура, при понижении до которой содержащийся в воздухе водяной пар достигнет насыщения.
f - Относительная влажность воздуха - влажноcть воздуха, измеренная на высоте 2 м над землей.
Te - Эффективная температура - температура, которую ощущает одетый по сезону человек в тени. Характеристика душности погоды. При расчете учитывается влияние влажности воздуха и скорости ветра на теплоощущения человека.
Tes - Эффективная температура на солнце - температура, которую ощущает человек, с поправкой на солнечный нагрев. Характеристика знойности погоды. Зависит от высоты солнца над горизонтом, облачности и скорости ветра. Ночью, в пасмурную погоду, а также при ветре 12 м/с и более поправка равна нулю.
P - Атмосферное давление - приведенное к уровню моря атмосферное давление.
Po - Атмосферное давление - измеренное на уровне метеостанции атмосферное давление.
Tmin - Минимальная температура - минимум температуры воздуха на высоте 2 м над землей.
Tmax - Максимальная температура - максимум температуры воздуха на высоте 2 м над землей.
R - Количество осадков - Количество выпавших осадков за период времени, мм. При наведении курсора мыши на число - период времени, за который выпало указанное количество осадков.
R24 - Количество осадков - Количество выпавших осадков за 24 часа, мм.
S - Снежный покров - Высота снежного покрова, см. При наведении курсора мыши на число - состояние снежного покрова и степень покрытия местности в баллах.